Time,TemperatureF,DewpointF,PressureIn,WindDirection,WindDirectionDegrees,WindSpeedMPH,WindSpeedGustMPH,Humidity,HourlyPrecipIn,Conditions,Clouds,dailyrainin,SoftwareType,DateUTC
2013-01-20 00:00:00,56.0,54.3,30.19,ESE,118,0.0,1.0,94,0.00,,,0.00,Wunderground v.1.15,2013-01-20 07:00:00,
2013-01-20 00:05:00,55.7,54.0,30.19,ESE,118,0.0,1.0,94,0.00,,,0.00,Wunderground v.1.15,2013-01-20 07:05:00,
2013-01-20 00:15:00,54.5,52.5,30.18,ESE,118,0.0,0.0,93,0.00,,,0.00,Wunderground v.1.15,2013-01-20 07:15:00,
2013-01-20 00:25:00,53.6,51.9,30.19,ESE,118,0.0,0.0,94,0.00,,,0.00,Wunderground v.1.15,2013-01-20 07:25:00,
2013-01-20 00:30:00,53.3,51.6,30.19,ESE,118,0.0,0.0,94,0.00,,,0.00,Wunderground v.1.15,2013-01-20 07:30:00,
2013-01-20 00:35:00,53.2,51.8,30.19,ESE,118,0.0,0.0,95,0.00,,,0.00,Wunderground v.1.15,2013-01-20 07:35:00,
2013-01-20 00:40:00,53.7,52.6,30.19,ESE,118,0.0,0.0,96,0.00,,,0.00,Wunderground v.1.15,2013-01-20 07:40:00,
2013-01-20 00:50:00,53.8,52.7,30.18,East,86,0.0,0.0,96,0.00,,,0.00,Wunderground v.1.15,2013-01-20 07:50:00,
2013-01-20 00:55:00,53.8,52.7,30.18,ENE,72,0.0,0.0,96,0.00,,,0.00,Wunderground v.1.15,2013-01-20 07:55:00,
2013-01-20 01:00:00,53.6,52.2,30.18,ENE,72,0.0,0.0,95,0.00,,,0.00,Wunderground v.1.15,2013-01-20 08:00:00,
2013-01-20 01:05:00,53.2,51.8,30.18,ENE,72,0.0,1.0,95,0.00,,,0.00,Wunderground v.1.15,2013-01-20 08:05:00,
2013-01-20 01:15:00,53.3,52.2,30.17,ENE,72,0.0,1.0,96,0.00,,,0.00,Wunderground v.1.15,2013-01-20 08:15:00,
2013-01-20 01:20:00,53.2,52.1,30.18,ENE,72,0.0,1.0,96,0.00,,,0.00,Wunderground v.1.15,2013-01-20 08:20:00,
2013-01-20 01:30:00,52.9,51.8,30.18,ENE,72,0.0,1.0,96,0.00,,,0.00,Wunderground v.1.15,2013-01-20 08:30:00,
2013-01-20 01:35:00,52.8,51.7,30.18,ENE,72,0.0,1.0,96,0.00,,,0.00,Wunderground v.1.15,2013-01-20 08:35:00,
2013-01-20 01:40:00,52.8,51.7,30.17,ENE,72,0.0,1.0,96,0.00,,,0.00,Wunderground v.1.15,2013-01-20 08:40:00,
2013-01-20 01:45:00,53.0,51.9,30.18,ENE,72,0.0,1.0,96,0.00,,,0.00,Wunderground v.1.15,2013-01-20 08:45:00,
2013-01-20 01:50:00,53.1,52.0,30.18,ENE,72,0.0,1.0,96,0.00,,,0.00,Wunderground v.1.15,2013-01-20 08:50:00,
2013-01-20 02:00:00,53.0,51.9,30.17,ENE,63,0.0,1.0,96,0.00,,,0.00,Wunderground v.1.15,2013-01-20 09:00:00,
2013-01-20 02:05:00,53.0,51.9,30.17,ENE,61,0.0,1.0,96,0.00,,,0.00,Wunderground v.1.15,2013-01-20 09:05:00,
2013-01-20 02:15:00,52.8,51.7,30.17,NE,56,0.0,1.0,96,0.00,,,0.00,Wunderground v.1.15,2013-01-20 09:15:00,
2013-01-20 02:20:00,53.0,51.9,30.17,NE,56,0.0,1.0,96,0.00,,,0.00,Wunderground v.1.15,2013-01-20 09:20:00,
2013-01-20 02:25:00,53.0,51.9,30.17,NE,55,0.0,1.0,96,0.00,,,0.00,Wunderground v.1.15,2013-01-20 09:25:00,
2013-01-20 02:30:00,53.1,52.0,30.17,NE,55,0.0,1.0,96,0.00,,,0.00,Wunderground v.1.15,2013-01-20 09:30:00,
2013-01-20 02:40:00,53.2,52.1,30.17,NE,41,0.0,1.0,96,0.00,,,0.00,Wunderground v.1.15,2013-01-20 09:40:00,
2013-01-20 02:45:00,53.2,52.1,30.17,NE,41,0.0,1.0,96,0.00,,,0.00,Wunderground v.1.15,2013-01-20 09:45:00,
2013-01-20 02:50:00,53.4,52.3,30.17,NE,41,0.0,1.0,96,0.00,,,0.00,Wunderground v.1.15,2013-01-20 09:50:00,
2013-01-20 02:55:00,53.3,52.2,30.17,NE,36,0.0,1.0,96,0.00,,,0.00,Wunderground v.1.15,2013-01-20 09:55:00,
2013-01-20 03:00:00,53.3,52.2,30.17,NE,35,0.0,1.0,96,0.00,,,0.00,Wunderground v.1.15,2013-01-20 10:00:00,
2013-01-20 03:05:00,53.4,52.3,30.17,NE,40,0.0,1.0,96,0.00,,,0.00,Wunderground v.1.15,2013-01-20 10:05:00,
2013-01-20 03:15:00,53.2,52.1,30.16,NE,45,0.0,0.0,96,0.00,,,0.00,Wunderground v.1.15,2013-01-20 10:15:00,
2013-01-20 03:20:00,52.8,51.4,30.16,West,269,0.0,2.0,95,0.00,,,0.00,Wunderground v.1.15,2013-01-20 10:20:00,
2013-01-20 03:25:00,51.4,49.7,30.16,West,277,0.0,2.0,94,0.00,,,0.00,Wunderground v.1.15,2013-01-20 10:25:00,
2013-01-20 03:30:00,50.9,49.5,30.16,West,275,0.0,0.0,95,0.00,,,0.00,Wunderground v.1.15,2013-01-20 10:30:00,
2013-01-20 03:35:00,50.8,49.4,30.16,West,275,0.0,0.0,95,0.00,,,0.00,Wunderground v.1.15,2013-01-20 10:35:00,
2013-01-20 03:40:00,50.7,49.3,30.17,West,275,0.0,0.0,95,0.00,,,0.00,Wunderground v.1.15,2013-01-20 10:40:00,
2013-01-20 03:50:00,51.2,50.1,30.17,West,275,0.0,0.0,96,0.00,,,0.00,Wunderground v.1.15,2013-01-20 10:50:00,
2013-01-20 03:55:00,51.0,49.9,30.17,West,276,0.0,0.0,96,0.00,,,0.00,Wunderground v.1.15,2013-01-20 10:55:00,
2013-01-20 04:00:00,50.4,49.3,30.17,West,276,0.0,0.0,96,0.00,,,0.00,Wunderground v.1.15,2013-01-20 11:00:00,
2013-01-20 04:05:00,49.8,49.8,30.17,West,276,0.0,0.0,100,0.00,,,0.00,Wunderground v.1.15,2013-01-20 11:05:00,
2013-01-20 04:15:00,-999.9,-99.9,30.17,North,32767,-999.0,0.0,255,-99.99,,,0.00,Wunderground v.1.15,2013-01-20 11:15:00,
2013-01-20 04:20:00,-999.9,-99.9,30.17,North,32767,-999.0,0.0,255,-99.99,,,0.00,Wunderground v.1.15,2013-01-20 11:20:00,
2013-01-20 04:25:00,-999.9,-99.9,30.17,North,32767,-999.0,0.0,255,-99.99,,,0.00,Wunderground v.1.15,2013-01-20 11:25:00,
2013-01-20 04:35:00,-999.9,-99.9,30.17,North,32767,-999.0,0.0,255,-99.99,,,0.00,Wunderground v.1.15,2013-01-20 11:35:00,
2013-01-20 04:40:00,-999.9,-99.9,30.17,North,32767,-999.0,0.0,255,-99.99,,,0.00,Wunderground v.1.15,2013-01-20 11:40:00,
2013-01-20 04:45:00,-999.9,-99.9,30.17,North,32767,-999.0,0.0,255,-99.99,,,0.00,Wunderground v.1.15,2013-01-20 11:45:00,
2013-01-20 04:50:00,-999.9,-99.9,30.17,North,32767,-999.0,0.0,255,-99.99,,,0.00,Wunderground v.1.15,2013-01-20 11:50:00,
2013-01-20 05:00:00,-999.9,-99.9,30.17,North,32767,-999.0,0.0,255,-99.99,,,0.00,Wunderground v.1.15,2013-01-20 12:00:00,
2013-01-20 05:05:00,-999.9,-99.9,30.17,North,32767,-999.0,0.0,255,-99.99,,,0.00,Wunderground v.1.15,2013-01-20 12:05:00,
2013-01-20 05:15:00,-999.9,-99.9,30.18,North,32767,-999.0,0.0,255,-99.99,,,0.00,Wunderground v.1.15,2013-01-20 12:15:00,
2013-01-20 05:20:00,-999.9,-99.9,30.18,North,32767,-999.0,0.0,255,-99.99,,,0.00,Wunderground v.1.15,2013-01-20 12:20:00,
2013-01-20 05:30:00,-999.9,-99.9,30.18,North,32767,-999.0,0.0,255,-99.99,,,0.00,Wunderground v.1.15,2013-01-20 12:30:00,
2013-01-20 05:35:00,-999.9,-99.9,30.18,North,32767,-999.0,0.0,255,-99.99,,,0.00,Wunderground v.1.15,2013-01-20 12:35:00,
2013-01-20 05:40:00,-999.9,-99.9,30.18,North,32767,-999.0,0.0,255,-99.99,,,0.00,Wunderground v.1.15,2013-01-20 12:40:00,
2013-01-20 05:45:00,-999.9,-99.9,30.18,North,32767,-999.0,0.0,255,-99.99,,,0.00,Wunderground v.1.15,2013-01-20 12:45:00,
2013-01-20 05:55:00,-999.9,-99.9,30.18,North,32767,-999.0,0.0,255,-99.99,,,0.00,Wunderground v.1.15,2013-01-20 12:55:00,
2013-01-20 06:00:00,-999.9,-99.9,30.18,North,32767,-999.0,0.0,255,-99.99,,,0.00,Wunderground v.1.15,2013-01-20 13:00:00,
2013-01-20 06:05:00,-999.9,-99.9,30.18,North,32767,-999.0,0.0,255,-99.99,,,0.00,Wunderground v.1.15,2013-01-20 13:05:00,
2013-01-20 06:15:00,-999.9,-99.9,30.18,North,32767,-999.0,0.0,255,-99.99,,,0.00,Wunderground v.1.15,2013-01-20 13:15:00,
2013-01-20 06:20:00,-999.9,-99.9,30.18,North,32767,-999.0,0.0,255,-99.99,,,0.00,Wunderground v.1.15,2013-01-20 13:20:00,
2013-01-20 06:25:00,-999.9,-99.9,30.19,North,32767,-999.0,0.0,255,-99.99,,,0.00,Wunderground v.1.15,2013-01-20 13:25:00,
2013-01-20 06:35:00,-999.9,-99.9,30.19,North,32767,-999.0,0.0,255,-99.99,,,0.00,Wunderground v.1.15,2013-01-20 13:35:00,
2013-01-20 06:40:00,-999.9,-99.9,30.20,North,32767,-999.0,0.0,255,-99.99,,,0.00,Wunderground v.1.15,2013-01-20 13:40:00,
2013-01-20 06:45:00,-999.9,-99.9,30.20,North,32767,-999.0,0.0,255,-99.99,,,0.00,Wunderground v.1.15,2013-01-20 13:45:00,
2013-01-20 06:50:00,-999.9,-99.9,30.20,North,32767,-999.0,0.0,255,-99.99,,,0.00,Wunderground v.1.15,2013-01-20 13:50:00,
2013-01-20 06:55:00,-999.9,-99.9,30.20,North,32767,-999.0,0.0,255,-99.99,,,0.00,Wunderground v.1.15,2013-01-20 13:55:00,
2013-01-20 07:05:00,52.7,51.9,30.21,NNE,25,0.0,1.0,97,0.00,,,0.00,Wunderground v.1.15,2013-01-20 14:05:00,
2013-01-20 07:15:00,53.1,52.3,30.21,NNE,29,0.0,1.0,97,0.00,,,0.00,Wunderground v.1.15,2013-01-20 14:15:00,
2013-01-20 07:20:00,53.6,52.8,30.21,ENE,58,0.0,1.0,97,0.00,,,0.00,Wunderground v.1.15,2013-01-20 14:20:00,
2013-01-20 07:25:00,54.2,53.4,30.21,NE,56,0.0,1.0,97,0.00,,,0.00,Wunderground v.1.15,2013-01-20 14:25:00,
2013-01-20 07:35:00,55.5,54.7,30.22,ENE,60,0.0,1.0,97,0.00,,,0.00,Wunderground v.1.15,2013-01-20 14:35:00,
2013-01-20 07:40:00,55.8,54.7,30.22,ENE,63,1.0,1.0,96,0.00,,,0.00,Wunderground v.1.15,2013-01-20 14:40:00,
2013-01-20 07:45:00,56.2,54.8,30.22,ENE,70,1.0,2.0,95,0.00,,,0.00,Wunderground v.1.15,2013-01-20 14:45:00,
2013-01-20 07:55:00,57.2,55.5,30.22,ENE,65,1.0,3.0,94,0.00,,,0.00,Wunderground v.1.15,2013-01-20 14:55:00,
2013-01-20 08:00:00,57.4,55.4,30.22,ENE,65,1.0,2.0,93,0.00,,,0.00,Wunderground v.1.15,2013-01-20 15:00:00,
2013-01-20 08:05:00,57.4,55.1,30.22,ENE,77,2.0,4.0,92,0.00,,,0.00,Wunderground v.1.15,2013-01-20 15:05:00,
2013-01-20 08:15:00,57.8,55.5,30.22,ENE,67,2.0,4.0,92,0.00,,,0.00,Wunderground v.1.15,2013-01-20 15:15:00,
2013-01-20 08:20:00,57.9,55.3,30.22,NE,46,2.0,2.0,91,0.00,,,0.00,Wunderground v.1.15,2013-01-20 15:20:00,
2013-01-20 08:25:00,58.2,55.6,30.22,NE,56,2.0,4.0,91,0.00,,,0.00,Wunderground v.1.15,2013-01-20 15:25:00,
2013-01-20 08:35:00,58.9,56.0,30.23,ENE,63,1.0,4.0,90,0.00,,,0.00,Wunderground v.1.15,2013-01-20 15:35:00,
2013-01-20 08:40:00,58.9,55.7,30.23,ENE,77,2.0,4.0,89,0.00,,,0.00,Wunderground v.1.15,2013-01-20 15:40:00,
2013-01-20 08:45:00,59.1,55.9,30.23,NE,42,2.0,4.0,89,0.00,,,0.00,Wunderground v.1.15,2013-01-20 15:45:00,
2013-01-20 08:50:00,59.2,56.0,30.23,ENE,68,2.0,2.0,89,0.00,,,0.00,Wunderground v.1.15,2013-01-20 15:50:00,
2013-01-20 09:00:00,60.0,56.4,30.23,ENE,63,1.0,4.0,88,0.00,,,0.00,Wunderground v.1.15,2013-01-20 16:00:00,
2013-01-20 09:05:00,60.0,56.4,30.23,ENE,58,1.0,4.0,88,0.00,,,0.00,Wunderground v.1.15,2013-01-20 16:05:00,
2013-01-20 09:15:00,61.1,57.5,30.23,East,92,1.0,2.0,88,0.00,,,0.00,Wunderground v.1.15,2013-01-20 16:15:00,
2013-01-20 09:20:00,61.4,57.5,30.23,East,85,1.0,1.0,87,0.00,,,0.00,Wunderground v.1.15,2013-01-20 16:20:00,
2013-01-20 09:25:00,61.6,57.7,30.23,East,87,1.0,3.0,87,0.00,,,0.00,Wunderground v.1.15,2013-01-20 16:25:00,
2013-01-20 09:30:00,61.9,58.0,30.23,ENE,77,1.0,1.0,87,0.00,,,0.00,Wunderground v.1.15,2013-01-20 16:30:00,
2013-01-20 09:35:00,63.0,58.7,30.23,East,93,0.0,2.0,86,0.00,,,0.00,Wunderground v.1.15,2013-01-20 16:35:00,
2013-01-20 09:45:00,63.7,58.8,30.23,ESE,119,1.0,3.0,84,0.00,,,0.00,Wunderground v.1.15,2013-01-20 16:45:00,
2013-01-20 09:50:00,63.9,58.3,30.23,SE,129,1.0,1.0,82,0.00,,,0.00,Wunderground v.1.15,2013-01-20 16:50:00,
2013-01-20 09:55:00,64.2,58.6,30.23,ESE,118,1.0,3.0,82,0.00,,,0.00,Wunderground v.1.15,2013-01-20 16:55:00,
2013-01-20 10:00:00,64.3,58.3,30.23,ESE,112,1.0,1.0,81,0.00,,,0.00,Wunderground v.1.15,2013-01-20 17:00:00,
2013-01-20 10:05:00,64.5,58.2,30.23,ESE,110,1.0,3.0,80,0.00,,,0.00,Wunderground v.1.15,2013-01-20 17:05:00,
2013-01-20 10:15:00,64.6,57.9,30.22,SE,125,1.0,3.0,79,0.00,,,0.00,Wunderground v.1.15,2013-01-20 17:15:00,
2013-01-20 10:25:00,64.8,58.5,30.22,ESE,115,2.0,3.0,80,0.00,,,0.00,Wunderground v.1.15,2013-01-20 17:25:00,
2013-01-20 10:30:00,64.8,58.1,30.21,SE,130,2.0,2.0,79,0.00,,,0.00,Wunderground v.1.15,2013-01-20 17:30:00,
2013-01-20 10:35:00,65.1,58.1,30.21,ESE,122,2.0,3.0,78,0.00,,,0.00,Wunderground v.1.15,2013-01-20 17:35:00,
2013-01-20 10:40:00,65.0,57.6,30.21,ESE,116,2.0,2.0,77,0.00,,,0.00,Wunderground v.1.15,2013-01-20 17:40:00,
2013-01-20 10:50:00,64.6,57.6,30.20,ESE,108,2.0,2.0,78,0.00,,,0.00,Wunderground v.1.15,2013-01-20 17:50:00,
2013-01-20 10:55:00,64.7,57.7,30.20,ESE,115,2.0,3.0,78,0.00,,,0.00,Wunderground v.1.15,2013-01-20 17:55:00,
2013-01-20 11:00:00,65.2,57.8,30.20,ESE,113,2.0,3.0,77,0.00,,,0.00,Wunderground v.1.15,2013-01-20 18:00:00,
2013-01-20 11:05:00,65.3,58.3,30.19,ESE,118,2.0,4.0,78,0.00,,,0.00,Wunderground v.1.15,2013-01-20 18:05:00,
2013-01-20 11:15:00,66.4,59.0,30.19,SE,143,1.0,4.0,77,0.00,,,0.00,Wunderground v.1.15,2013-01-20 18:15:00,
2013-01-20 11:20:00,67.4,58.8,30.18,ESE,106,1.0,4.0,74,0.00,,,0.00,Wunderground v.1.15,2013-01-20 18:20:00,
2013-01-20 11:25:00,66.8,58.2,30.18,ESE,104,2.0,4.0,74,0.00,,,0.00,Wunderground v.1.15,2013-01-20 18:25:00,
2013-01-20 11:35:00,67.3,58.0,30.17,ESE,113,2.0,4.0,72,0.00,,,0.00,Wunderground v.1.15,2013-01-20 18:35:00,
2013-01-20 11:40:00,66.5,58.0,30.17,ESE,110,3.0,4.0,74,0.00,,,0.00,Wunderground v.1.15,2013-01-20 18:40:00,
2013-01-20 11:45:00,66.9,58.7,30.16,SE,131,4.0,4.0,75,0.00,,,0.00,Wunderground v.1.15,2013-01-20 18:45:00,
2013-01-20 11:50:00,67.8,59.2,30.16,East,101,3.0,4.0,74,0.00,,,0.00,Wunderground v.1.15,2013-01-20 18:50:00,
2013-01-20 12:00:00,66.9,58.3,30.15,ESE,116,4.0,5.0,74,0.00,,,0.00,Wunderground v.1.15,2013-01-20 19:00:00,
2013-01-20 12:05:00,66.6,58.1,30.15,SE,131,4.0,6.0,74,0.00,,,0.00,Wunderground v.1.15,2013-01-20 19:05:00,
2013-01-20 12:15:00,66.5,58.0,30.14,ESE,116,4.0,6.0,74,0.00,,,0.00,Wunderground v.1.15,2013-01-20 19:15:00,
2013-01-20 12:20:00,67.1,58.5,30.14,ESE,120,4.0,4.0,74,0.00,,,0.00,Wunderground v.1.15,2013-01-20 19:20:00,
2013-01-20 12:25:00,67.5,58.9,30.14,ESE,107,3.0,6.0,74,0.00,,,0.00,Wunderground v.1.15,2013-01-20 19:25:00,
2013-01-20 12:30:00,67.7,58.7,30.14,SE,124,3.0,3.0,73,0.00,,,0.00,Wunderground v.1.15,2013-01-20 19:30:00,
2013-01-20 12:40:00,67.8,58.8,30.13,ESE,103,3.0,6.0,73,0.00,,,0.00,Wunderground v.1.15,2013-01-20 19:40:00,
2013-01-20 12:45:00,67.8,59.2,30.13,ESE,103,4.0,6.0,74,0.00,,,0.00,Wunderground v.1.15,2013-01-20 19:45:00,
2013-01-20 12:50:00,67.7,59.1,30.12,ESE,115,4.0,7.0,74,0.00,,,0.00,Wunderground v.1.15,2013-01-20 19:50:00,
2013-01-20 12:55:00,67.8,59.2,30.12,ESE,123,4.0,7.0,74,0.00,,,0.00,Wunderground v.1.15,2013-01-20 19:55:00,
2013-01-20 13:00:00,67.4,58.4,30.12,ESE,115,5.0,5.0,73,0.00,,,0.00,Wunderground v.1.15,2013-01-20 20:00:00,
2013-01-20 13:05:00,67.2,58.2,30.11,ESE,110,5.0,7.0,73,0.00,,,0.00,Wunderground v.1.15,2013-01-20 20:05:00,
2013-01-20 13:15:00,66.8,58.6,30.11,SE,142,5.0,7.0,75,0.00,,,0.00,Wunderground v.1.15,2013-01-20 20:15:00,
2013-01-20 13:25:00,67.2,59.0,30.11,ESE,113,5.0,7.0,75,0.00,,,0.00,Wunderground v.1.15,2013-01-20 20:25:00,
2013-01-20 13:30:00,67.1,58.2,30.10,ESE,121,5.0,8.0,73,0.00,,,0.00,Wunderground v.1.15,2013-01-20 20:30:00,
2013-01-20 13:35:00,67.2,59.0,30.10,SE,139,6.0,8.0,75,0.00,,,0.00,Wunderground v.1.15,2013-01-20 20:35:00,
2013-01-20 13:40:00,67.3,58.3,30.10,SE,136,5.0,7.0,73,0.00,,,0.00,Wunderground v.1.15,2013-01-20 20:40:00,
2013-01-20 13:50:00,66.6,58.1,30.10,ESE,108,7.0,8.0,74,0.00,,,0.00,Wunderground v.1.15,2013-01-20 20:50:00,
2013-01-20 13:55:00,66.6,58.4,30.10,SE,125,7.0,8.0,75,0.00,,,0.00,Wunderground v.1.15,2013-01-20 20:55:00,
2013-01-20 14:00:00,66.7,58.5,30.10,SE,127,6.0,6.0,75,0.00,,,0.00,Wunderground v.1.15,2013-01-20 21:00:00,
2013-01-20 14:05:00,66.8,58.6,30.10,ESE,107,6.0,10.0,75,0.00,,,0.00,Wunderground v.1.15,2013-01-20 21:05:00,
2013-01-20 14:15:00,66.1,57.9,30.10,ESE,108,7.0,10.0,75,0.00,,,0.00,Wunderground v.1.15,2013-01-20 21:15:00,
2013-01-20 14:20:00,65.9,57.7,30.10,SE,125,8.0,8.0,75,0.00,,,0.00,Wunderground v.1.15,2013-01-20 21:20:00,
2013-01-20 14:25:00,66.0,58.2,30.10,ESE,120,8.0,10.0,76,0.00,,,0.00,Wunderground v.1.15,2013-01-20 21:25:00,
2013-01-20 14:35:00,66.0,58.6,30.10,ESE,106,7.0,10.0,77,0.00,,,0.00,Wunderground v.1.15,2013-01-20 21:35:00,
2013-01-20 14:40:00,65.9,58.1,30.10,ESE,105,7.0,10.0,76,0.00,,,0.00,Wunderground v.1.15,2013-01-20 21:40:00,
2013-01-20 14:45:00,65.9,58.5,30.10,ESE,113,7.0,10.0,77,0.00,,,0.00,Wunderground v.1.15,2013-01-20 21:45:00,
2013-01-20 14:50:00,65.7,57.9,30.09,ESE,102,8.0,8.0,76,0.00,,,0.00,Wunderground v.1.15,2013-01-20 21:50:00,
2013-01-20 15:00:00,65.5,57.7,30.10,East,101,8.0,8.0,76,0.00,,,0.00,Wunderground v.1.15,2013-01-20 22:00:00,
2013-01-20 15:05:00,65.6,58.6,30.10,ESE,118,8.0,11.0,78,0.00,,,0.00,Wunderground v.1.15,2013-01-20 22:05:00,
2013-01-20 15:15:00,65.5,58.5,30.10,ESE,110,7.0,11.0,78,0.00,,,0.00,Wunderground v.1.15,2013-01-20 22:15:00,
2013-01-20 15:20:00,65.5,58.8,30.10,ESE,116,7.0,11.0,79,0.00,,,0.00,Wunderground v.1.15,2013-01-20 22:20:00,
2013-01-20 15:25:00,65.4,58.7,30.09,SE,128,7.0,11.0,79,0.00,,,0.00,Wunderground v.1.15,2013-01-20 22:25:00,
2013-01-20 15:30:00,65.2,58.5,30.09,East,96,6.0,11.0,79,0.00,,,0.00,Wunderground v.1.15,2013-01-20 22:30:00,
2013-01-20 15:40:00,64.8,58.5,30.09,ESE,103,6.0,6.0,80,0.00,,,0.00,Wunderground v.1.15,2013-01-20 22:40:00,
2013-01-20 15:45:00,64.5,58.5,30.09,East,89,6.0,11.0,81,0.00,,,0.00,Wunderground v.1.15,2013-01-20 22:45:00,
2013-01-20 15:50:00,64.3,58.7,30.09,SE,139,6.0,6.0,82,0.00,,,0.00,Wunderground v.1.15,2013-01-20 22:50:00,
2013-01-20 15:55:00,64.2,58.6,30.09,ESE,113,5.0,7.0,82,0.00,,,0.00,Wunderground v.1.15,2013-01-20 22:55:00,
2013-01-20 16:00:00,64.2,58.6,30.09,SE,126,6.0,11.0,82,0.00,,,0.00,Wunderground v.1.15,2013-01-20 23:00:00,
2013-01-20 16:05:00,64.3,58.7,30.09,ESE,108,7.0,12.0,82,0.00,,,0.00,Wunderground v.1.15,2013-01-20 23:05:00,
2013-01-20 16:15:00,63.9,58.3,30.09,SE,134,7.0,12.0,82,0.00,,,0.00,Wunderground v.1.15,2013-01-20 23:15:00,
2013-01-20 16:25:00,63.3,58.0,30.09,ESE,111,7.0,8.0,83,0.00,,,0.00,Wunderground v.1.15,2013-01-20 23:25:00,
2013-01-20 16:30:00,63.3,58.4,30.09,SE,125,7.0,7.0,84,0.00,,,0.00,Wunderground v.1.15,2013-01-20 23:30:00,
2013-01-20 16:35:00,63.1,58.2,30.09,East,87,8.0,12.0,84,0.00,,,0.00,Wunderground v.1.15,2013-01-20 23:35:00,
2013-01-20 16:45:00,62.8,57.9,30.09,SE,126,9.0,12.0,84,0.00,,,0.00,Wunderground v.1.15,2013-01-20 23:45:00,
2013-01-20 16:50:00,62.6,58.0,30.09,ESE,117,9.0,12.0,85,0.00,,,0.00,Wunderground v.1.15,2013-01-20 23:50:00,
2013-01-20 16:55:00,62.4,57.8,30.09,ESE,108,8.0,12.0,85,0.00,,,0.00,Wunderground v.1.15,2013-01-20 23:55:00,
2013-01-20 17:05:00,62.1,57.9,30.10,ESE,113,7.0,9.0,86,0.00,,,0.00,Wunderground v.1.15,2013-01-21 00:05:00,
2013-01-20 17:15:00,61.9,57.7,30.10,East,101,7.0,12.0,86,0.00,,,0.00,Wunderground v.1.15,2013-01-21 00:15:00,
2013-01-20 17:25:00,61.7,57.5,30.10,ESE,111,6.0,12.0,86,0.00,,,0.00,Wunderground v.1.15,2013-01-21 00:25:00,
2013-01-20 17:30:00,61.7,57.5,30.10,ESE,113,6.0,6.0,86,0.00,,,0.00,Wunderground v.1.15,2013-01-21 00:30:00,
2013-01-20 17:35:00,61.7,57.5,30.10,ESE,110,6.0,9.0,86,0.00,,,0.00,Wunderground v.1.15,2013-01-21 00:35:00,
2013-01-20 17:45:00,61.5,57.3,30.10,ESE,123,7.0,12.0,86,0.00,,,0.00,Wunderground v.1.15,2013-01-21 00:45:00,
2013-01-20 17:50:00,61.4,56.8,30.10,ESE,108,7.0,12.0,85,0.00,,,0.00,Wunderground v.1.15,2013-01-21 00:50:00,
2013-01-20 17:55:00,61.5,57.3,30.10,ESE,115,6.0,12.0,86,0.00,,,0.00,Wunderground v.1.15,2013-01-21 00:55:00,
2013-01-20 18:00:00,61.4,57.5,30.10,SE,141,6.0,12.0,87,0.00,,,0.00,Wunderground v.1.15,2013-01-21 01:00:00,
2013-01-20 18:05:00,61.4,57.5,30.11,ESE,122,7.0,12.0,87,0.00,,,0.00,Wunderground v.1.15,2013-01-21 01:05:00,
2013-01-20 18:15:00,61.5,57.3,30.11,ESE,106,7.0,11.0,86,0.00,,,0.00,Wunderground v.1.15,2013-01-21 01:15:00,
2013-01-20 18:20:00,61.5,57.3,30.11,SE,126,7.0,7.0,86,0.00,,,0.00,Wunderground v.1.15,2013-01-21 01:20:00,
2013-01-20 18:30:00,61.6,57.0,30.11,SE,124,7.0,11.0,85,0.00,,,0.00,Wunderground v.1.15,2013-01-21 01:30:00,
2013-01-20 18:35:00,61.6,57.0,30.11,ESE,122,7.0,11.0,85,0.00,,,0.00,Wunderground v.1.15,2013-01-21 01:35:00,
2013-01-20 18:40:00,61.7,56.8,30.11,SE,126,7.0,11.0,84,0.00,,,0.00,Wunderground v.1.15,2013-01-21 01:40:00,
2013-01-20 18:45:00,61.7,56.8,30.11,ESE,106,7.0,11.0,84,0.00,,,0.00,Wunderground v.1.15,2013-01-21 01:45:00,
2013-01-20 18:55:00,61.5,56.6,30.11,SE,127,5.0,11.0,84,0.00,,,0.00,Wunderground v.1.15,2013-01-21 01:55:00,
2013-01-20 19:00:00,61.4,56.5,30.11,ESE,118,5.0,11.0,84,0.00,,,0.00,Wunderground v.1.15,2013-01-21 02:00:00,
2013-01-20 19:05:00,61.4,56.5,30.11,ESE,117,5.0,11.0,84,0.00,,,0.00,Wunderground v.1.15,2013-01-21 02:05:00,
2013-01-20 19:15:00,61.4,56.5,30.11,ESE,115,6.0,9.0,84,0.00,,,0.00,Wunderground v.1.15,2013-01-21 02:15:00,
2013-01-20 19:20:00,61.4,56.5,30.11,East,90,7.0,7.0,84,0.00,,,0.00,Wunderground v.1.15,2013-01-21 02:20:00,
2013-01-20 19:25:00,61.4,56.5,30.11,ESE,103,7.0,9.0,84,0.00,,,0.00,Wunderground v.1.15,2013-01-21 02:25:00,
2013-01-20 19:35:00,61.3,56.8,30.11,ESE,111,6.0,7.0,85,0.00,,,0.00,Wunderground v.1.15,2013-01-21 02:35:00,
2013-01-20 19:45:00,61.3,57.1,30.11,ESE,103,5.0,9.0,86,0.00,,,0.00,Wunderground v.1.15,2013-01-21 02:45:00,
2013-01-20 19:55:00,61.2,57.3,30.11,ESE,107,6.0,6.0,87,0.00,,,0.00,Wunderground v.1.15,2013-01-21 02:55:00,
2013-01-20 20:00:00,61.1,57.2,30.11,SE,124,5.0,5.0,87,0.00,,,0.00,Wunderground v.1.15,2013-01-21 03:00:00,
2013-01-20 20:05:00,61.0,57.4,30.11,SE,128,5.0,9.0,88,0.00,,,0.00,Wunderground v.1.15,2013-01-21 03:05:00,
2013-01-20 20:15:00,60.9,57.6,30.11,ESE,115,5.0,9.0,89,0.00,,,0.00,Wunderground v.1.15,2013-01-21 03:15:00,
2013-01-20 20:20:00,60.9,57.6,30.11,SE,124,5.0,5.0,89,0.00,,,0.00,Wunderground v.1.15,2013-01-21 03:20:00,
2013-01-20 20:25:00,60.9,57.3,30.11,ESE,108,5.0,6.0,88,0.00,,,0.00,Wunderground v.1.15,2013-01-21 03:25:00,
2013-01-20 20:30:00,60.9,57.3,30.11,East,98,5.0,5.0,88,0.00,,,0.00,Wunderground v.1.15,2013-01-21 03:30:00,
2013-01-20 20:35:00,60.9,57.3,30.11,East,91,4.0,9.0,88,0.00,,,0.00,Wunderground v.1.15,2013-01-21 03:35:00,
2013-01-20 20:40:00,60.8,57.2,30.11,ESE,123,3.0,3.0,88,0.00,,,0.00,Wunderground v.1.15,2013-01-21 03:40:00,
2013-01-20 20:50:00,60.6,57.0,30.12,East,89,3.0,9.0,88,0.00,,,0.00,Wunderground v.1.15,2013-01-21 03:50:00,
2013-01-20 20:55:00,60.6,57.0,30.12,ESE,108,3.0,9.0,88,0.00,,,0.00,Wunderground v.1.15,2013-01-21 03:55:00,
2013-01-20 21:00:00,60.5,56.9,30.12,ESE,120,3.0,3.0,88,0.00,,,0.00,Wunderground v.1.15,2013-01-21 04:00:00,
2013-01-20 21:05:00,60.4,56.8,30.12,ESE,110,3.0,6.0,88,0.00,,,0.00,Wunderground v.1.15,2013-01-21 04:05:00,
2013-01-20 21:15:00,60.4,56.8,30.12,ESE,116,2.0,6.0,88,0.00,,,0.00,Wunderground v.1.15,2013-01-21 04:15:00,
2013-01-20 21:20:00,60.5,56.9,30.11,SE,124,3.0,6.0,88,0.00,,,0.00,Wunderground v.1.15,2013-01-21 04:20:00,
2013-01-20 21:25:00,60.5,56.9,30.12,SE,128,3.0,6.0,88,0.00,,,0.00,Wunderground v.1.15,2013-01-21 04:25:00,
2013-01-20 21:30:00,60.5,56.6,30.12,SE,137,4.0,4.0,87,0.00,,,0.00,Wunderground v.1.15,2013-01-21 04:30:00,
2013-01-20 21:35:00,60.5,56.6,30.12,SE,127,3.0,5.0,87,0.00,,,0.00,Wunderground v.1.15,2013-01-21 04:35:00,
2013-01-20 21:40:00,60.5,56.6,30.12,SE,134,3.0,3.0,87,0.00,,,0.00,Wunderground v.1.15,2013-01-21 04:40:00,
2013-01-20 21:45:00,60.5,56.6,30.12,SE,139,3.0,6.0,87,0.00,,,0.00,Wunderground v.1.15,2013-01-21 04:45:00,
2013-01-20 21:55:00,60.5,56.3,30.12,ESE,118,3.0,6.0,86,0.00,,,0.00,Wunderground v.1.15,2013-01-21 04:55:00,
2013-01-20 22:00:00,60.4,56.2,30.12,ESE,108,3.0,6.0,86,0.00,,,0.00,Wunderground v.1.15,2013-01-21 05:00:00,
2013-01-20 22:05:00,60.4,56.2,30.12,ESE,118,3.0,6.0,86,0.00,,,0.00,Wunderground v.1.15,2013-01-21 05:05:00,
2013-01-20 22:15:00,60.3,56.1,30.11,ESE,116,2.0,5.0,86,0.00,,,0.00,Wunderground v.1.15,2013-01-21 05:15:00,
2013-01-20 22:20:00,60.2,56.0,30.12,SE,129,3.0,3.0,86,0.00,,,0.00,Wunderground v.1.15,2013-01-21 05:20:00,
2013-01-20 22:30:00,60.0,56.1,30.12,SE,135,2.0,5.0,87,0.00,,,0.00,Wunderground v.1.15,2013-01-21 05:30:00,
2013-01-20 22:35:00,60.0,56.1,30.11,SE,139,3.0,5.0,87,0.00,,,0.00,Wunderground v.1.15,2013-01-21 05:35:00,
2013-01-20 22:40:00,60.0,56.1,30.11,ESE,118,3.0,3.0,87,0.00,,,0.00,Wunderground v.1.15,2013-01-21 05:40:00,
2013-01-20 22:45:00,60.0,56.1,30.11,ESE,122,2.0,5.0,87,0.00,,,0.00,Wunderground v.1.15,2013-01-21 05:45:00,
2013-01-20 22:50:00,60.1,56.2,30.11,SE,127,2.0,5.0,87,0.00,,,0.00,Wunderground v.1.15,2013-01-21 05:50:00,
2013-01-20 22:55:00,60.0,56.1,30.12,SE,131,3.0,5.0,87,0.00,,,0.00,Wunderground v.1.15,2013-01-21 05:55:00,
2013-01-20 23:00:00,60.0,56.4,30.11,ESE,118,3.0,5.0,88,0.00,,,0.00,Wunderground v.1.15,2013-01-21 06:00:00,
2013-01-20 23:05:00,59.9,56.3,30.11,SE,135,3.0,6.0,88,0.00,,,0.00,Wunderground v.1.15,2013-01-21 06:05:00,
2013-01-20 23:15:00,59.8,56.6,30.11,SE,124,2.0,6.0,89,0.00,,,0.00,Wunderground v.1.15,2013-01-21 06:15:00,
2013-01-20 23:20:00,59.8,56.6,30.11,SE,141,3.0,3.0,89,0.00,,,0.00,Wunderground v.1.15,2013-01-21 06:20:00,
2013-01-20 23:25:00,59.7,56.5,30.11,SE,134,2.0,6.0,89,0.00,,,0.00,Wunderground v.1.15,2013-01-21 06:25:00,
2013-01-20 23:35:00,59.5,56.6,30.12,SE,127,1.0,6.0,90,0.00,,,0.00,Wunderground v.1.15,2013-01-21 06:35:00,
2013-01-20 23:40:00,59.5,56.6,30.12,SE,142,2.0,2.0,90,0.00,,,0.00,Wunderground v.1.15,2013-01-21 06:40:00,
2013-01-20 23:45:00,59.4,56.5,30.12,ESE,121,2.0,6.0,90,0.00,,,0.00,Wunderground v.1.15,2013-01-21 06:45:00,
2013-01-20 23:50:00,59.4,56.8,30.12,ESE,107,2.0,2.0,91,0.00,,,0.00,Wunderground v.1.15,2013-01-21 06:50:00,
2013-01-20 23:55:00,59.3,56.7,30.12,ESE,111,2.0,3.0,91,0.00,,,0.00,Wunderground v.1.15,2013-01-21 06:55:00,